OBJECT G, 57172

Orbit data source: Space-Track

You're viewing an Uncataloged Satellite

Recently launched and/or uncataloged satellites may have evolving metadata. Metadata may include but not limited to: Owner, Maufacturer, Bus, Motor, and Mission.

OBJECT G, 57172 is a satellite in SSO that was launched on Tue, 27 Jun 2023 UTC via a SOYUZ-2-1B launch vehicle from the Vostochny Cosmodrome (VOSTO). Unknown objects in Earth's orbit typically refer to objects detected orbiting the Earth but have not yet been identified or cataloged. These objects could be anything from previously untracked satellites, spent rocket stages, debris from satellite collisions, or even natural meteoroids temporarily captured by Earth's gravity.

Loading next visibility...
Identifier
57172, 2023-091G
Orbit
SSO
Country
Flag of TBDTBD
Related business
None
Manufacturer
Unknown
Mission
Operational Amateur Technology
Bus & Motor
Unknown
Mass
Unknown
Launch date (UTC)
2023-06-27 (3 years ago)
Launch vehicle
SOYUZ-2-1B
Launch site
Vostochny Cosmodrome (VOSTO)
Object type
Unknown
Shape & HBR
Box, 0.1 m
Radar Cross Section
0.035 m², Medium (>0.1 m² and < 1m²)

Expand to show TLE details & history
Last TLE update: 7 hours ago

TLE from 7 hours ago
0 OBJECT G
1 57172U 23091G   26162.89592818  .00005527  00000-0  25359-3 0  9990
2 57172  97.5058 221.6133 0014033 134.1825 226.0566 15.20756133163203
Epoch: 2026-06-11T21:30Z
TLE epoch observation values (Epoch: 2026-06-11T21:30:08.194Z)
Latitude
-0.00004°
Longitude
-1.15399°
Altitude
513.357 km
Speed
7.603 km/s
True Right ascension
14h 46m 27s
True Declination
0° 00' 00"
Sunlit
Object was in full shadow at epoch
Visualization orbit readout
Latitude
Unknown
Longitude
Unknown
Altitude
Unknown
Speed
Unknown
Apparent Right ascension
Unknown
Apparent Declination
Unknown
Sunlit
N/A
Visualization observer readout
Local Sidereal Time
14:27:10
Azimuth
Unknown
Elevation
Unknown
Doppler factor
Unknown
Orbital elements
Apogee altitude
510.181 km
Perigee altitude
490.875 km
Semi-major axis
6,878.665 km
Eccentricity
0.0014
Inclination
97.5058°
RAAN
221.6133°
Arg. of periapsis
134.1825°
True anomaly
225.94096°
Mean anomaly
226.0566°
Eccentric anomaly
225.99876°
Mean motion
3.80441 °/min
Orbital period
94.63 mins
BSTAR
0.00025359
Loading maneuver chart data...
Computing Atmospheric mass density...
Loading historical data...
Loading historical data...
Loading historical data...
Loading historical data...
Loading historical data...
Loading historical data...
Loading historical data...

Documentation

Showing up to 5 results
|